Tracking 23764 objects as of 17-Oct-2021
HD Live streaming from Space Station
objects crossing your sky now

COSMOS 1231

Track COSMOS 1231 now!
10-day predictions
COSMOS 1231 is classified as:


NORAD ID: 12110
Int'l Code: 1980-102D
Perigee: 1,413.4 km
Apogee: 1,470.8 km
Inclination: 74.0 °
Period: 114.5 minutes
Semi major axis: 7813 km
RCS: 0.7072 m2 (medium)
Launch date: December 23, 1980
Source: Commonwealth of Independent States (former USSR) (CIS)
Launch site: PLESETSK MISSILE AND SPACE COMPLEX (PKMTR)
aabbcc
Your satellite tracking list
Your tracking list is empty




NASA's NSSDC Master Catalog

Two Line Element Set (TLE):
1 12110U 80102D   21289.52828649  .00000005  00000-0  12917-3 0  9990
2 12110  73.9910 130.2273 0036704 128.1372 258.3662 12.57097410872902
Source of the keplerian elements: AFSPC